West Palm Beach, FL

3:01 PM EDT on July 26, 2017 (GMT -0400)
Palm Beach International

Weather History for KPBI - March, 2012

Change the Weather History Date:

Friday, March 23, 2012

  Actual Average Record
Temperature  
Mean Temperature 76 °F 71 °F  
Max Temperature 81 °F 79 °F 91 °F (1911)
Min Temperature 70 °F 63 °F 42 °F (1960)
Degree Days  
Heating Degree Days 0 0  
Month to date heating degree days 3 22  
Since 1 July heating degree days 112 227  
Cooling Degree Days 11 7  
Month to date cooling degree days 203 137  
Year to date cooling degree days 519 372  
Growing Degree Days 25 (Base 50)    
Moisture  
Dew Point 63 °F    
Average Humidity 68    
Maximum Humidity 84    
Minimum Humidity 51    
Precipitation  
Precipitation 0.00 in 0.15 in 3.14 in (1984)
Month to date precipitation 1.75 3.40  
Year to date precipitation 5.95 9.35  
Snow  
Snow 0.00 in - - ()
Month to date snowfall 0.0  
Since 1 July snowfall 0.0  
Snow Depth 0.00 in    
Sea Level Pressure  
Sea Level Pressure 30.08 in    
Wind  
Wind Speed 9 mph (ESE)    
Max Wind Speed 16 mph    
Max Gust Speed 22 mph    
Visibility 10 miles    
Events      
T = Trace of Precipitation, MM = Missing Value Source: NWS Daily Summary

Daily Weather History Graph

Daily Weather History Graph

Search for Another Location

Airport or City:

Trip Planner

Search our weather history database for the weather conditions in past years. The results will help you decide how hot, cold, wet, or windy it might be!

Date:

Astronomy

Mar. 23, 2012 Rise Set
Actual Time 7:20 AM EDT 7:33 PM EDT
Civil Twilight 6:57 AM EDT 7:56 PM EDT
Nautical Twilight 6:30 AM EDT 8:23 PM EDT
Astronomical Twilight 6:03 AM EDT 8:50 PM EDT
Moon 7:38 AM EDT (3/23) 8:40 PM EDT (3/23)
Length of Visible Light 12h 59m
Length of Day
12h 12m
New Moon, 1% of the Moon is Illuminated
Mar 23
New Moon
Mar 30
First Quarter
Apr 6
Full
Apr 13
Last Quarter
Apr 21
New

Hourly Weather History & Observations

Time (EDT) Temp. Heat Index Dew Point Humidity Pressure Visibility Wind Dir Wind Speed Gust Speed Precip Events Conditions
12:53 AM 70.0 °F - 64.9 °F 84% 30.13 in 10.0 mi East 15.0 mph - 0.00 in   Mostly Cloudy
1:53 AM 72.0 °F - 66.0 °F 81% 30.10 in 10.0 mi East 5.8 mph - N/A   Mostly Cloudy
2:53 AM 73.9 °F - 64.0 °F 71% 30.09 in 10.0 mi ESE 12.7 mph - N/A   Scattered Clouds
3:53 AM 73.0 °F - 64.0 °F 73% 30.08 in 10.0 mi SE 11.5 mph - N/A   Scattered Clouds
4:53 AM 73.0 °F - 62.1 °F 68% 30.07 in 10.0 mi ESE 10.4 mph - N/A   Partly Cloudy
5:53 AM 71.1 °F - 62.1 °F 73% 30.08 in 10.0 mi ESE 5.8 mph - N/A   Partly Cloudy
6:53 AM 70.0 °F - 63.0 °F 78% 30.09 in 10.0 mi ESE 5.8 mph - N/A   Scattered Clouds
7:53 AM 72.0 °F - 63.0 °F 73% 30.11 in 10.0 mi ESE 5.8 mph - N/A   Scattered Clouds
8:53 AM 75.0 °F - 62.1 °F 64% 30.12 in 10.0 mi East 8.1 mph - N/A   Scattered Clouds
9:53 AM 75.9 °F - 62.1 °F 62% 30.13 in 10.0 mi ESE 10.4 mph - N/A   Scattered Clouds
10:53 AM 78.1 °F - 61.0 °F 56% 30.14 in 10.0 mi Variable 5.8 mph - N/A   Scattered Clouds
11:53 AM 79.0 °F - 60.1 °F 52% 30.13 in 10.0 mi ESE 8.1 mph - N/A   Scattered Clouds
12:53 PM 80.1 °F 81.2 °F 62.1 °F 54% 30.11 in 10.0 mi ESE 6.9 mph - N/A   Scattered Clouds
1:53 PM 80.1 °F 81.1 °F 61.0 °F 52% 30.08 in 10.0 mi ESE 11.5 mph - N/A   Partly Cloudy
2:53 PM 79.0 °F - 63.0 °F 58% 30.07 in 10.0 mi East 11.5 mph 16.1 mph N/A   Scattered Clouds
3:53 PM 79.0 °F - 64.0 °F 60% 30.06 in 10.0 mi East 9.2 mph 17.3 mph N/A   Scattered Clouds
4:53 PM 79.0 °F - 63.0 °F 58% 30.05 in 10.0 mi East 9.2 mph - N/A   Scattered Clouds
5:53 PM 78.1 °F - 63.0 °F 60% 30.04 in 10.0 mi SE 10.4 mph 18.4 mph N/A   Scattered Clouds
6:53 PM 75.9 °F - 64.0 °F 67% 30.04 in 10.0 mi ESE 11.5 mph 17.3 mph N/A   Partly Cloudy
7:53 PM 75.0 °F - 64.0 °F 69% 30.05 in 10.0 mi ESE 10.4 mph - N/A   Partly Cloudy
8:53 PM 73.9 °F - 63.0 °F 68% 30.05 in 10.0 mi SE 6.9 mph - N/A   Partly Cloudy
9:53 PM 75.0 °F - 64.0 °F 69% 30.06 in 10.0 mi East 9.2 mph - N/A   Partly Cloudy
10:53 PM 73.9 °F - 64.9 °F 73% 30.06 in 10.0 mi ESE 9.2 mph - N/A   Partly Cloudy
11:53 PM 73.0 °F - 64.9 °F 76% 30.05 in 10.0 mi SE 9.2 mph - N/A   Partly Cloudy